IRNSS 1B

导读

IRNSS 1B是印度区域导航卫星系统(IRNSS)的第二颗卫星,于2014年4月4日由印度空间研究组织(ISRO)使用极轨卫星运载火箭发射升空。卫星重约1432千克,设计使用寿命10年,属于印度自主建设的区域导航星座组成部分。该系统可为印度本土及周边1500千米范围内提供定位服务,应用覆盖陆海空导航、灾难管理、测绘授时等领域,兼具民用与战略价值。

基本信息
目录编号:
39635
目录名称:
IRNSS 1B
国际标识:
2014-017A
轨道中心:
EARTH
卫星名称:
IRNSS 1B
卫星全名:
--
卫星状态:
在轨 (已飞行4453 天)
发射日期:
2014-04-04 UTC
国别 :
印度 (IN)
星等 :
--
轨道信息
数据来源 国际轨道数据 AOE轨道数据
星历时间 2026-06-12T02:38:37+0800
1天前
查看轨道信息
2026-06-11T03:00:00+0800
2天前
查看轨道信息
半长轴 42163.943km 42163.831km
偏心率 0.0022984 0.0022952
轨道倾角 28.931° 28.933°
近地点辐角 189.701° 189.252°
升交点赤经 240.496° 240.512°
平近点角 164.656° 169.461°
近地点 35688.896km 35688.919km
远地点 35882.716km 35882.469km
周期 1436.057分钟 1436.051分钟
每日圈数 1.002746 1.00275
详细信息
使用方式:
暂无
2D轨道图
3D轨道图
轨道高度分析图
轨道倾角分析图
轨道综合分析图
查看轨道综合分析图